User: anonymous   Login
Location: Elk Horn Observatory
(36.6768°N, 80.8309°W)
Time: 14:15:10
(UTC-04:00)
Language:

Tiangong 2 - Orbit

View from above orbital plane
View from above orbital plane
View from above satellite
View from above satellite

Ground track
Ground track

The orbit data is extracted from the following two-line orbital elements,

1 41765U 16057A   19109.53476010  .00004551  00000-0  56512-4 0  9996
2 41765  42.7848 316.7259 0008080 229.2579 220.5868 15.61277802147870
Epoch (UTC): 19 April 2019 12:50:03
Eccentricity: 0.0008080
inclination: 42.7848°
perigee height: 378 km
apogee height: 389 km
right ascension of ascending node: 316.7259°
argument of perigee: 229.2579°
revolutions per day: 15.61277802
mean anomaly at epoch: 220.5868°
orbit number at epoch: 14787

The dashed part of the orbit path shows where the satellite is in the earth's shadow,  

DLR